Change the Weather History Date:

Tuesday, June 18, 2013

  Actual Average Record
Temperature  
Mean Temperature 74 °F -  
Max Temperature 87 °F 70 °F 91 °F (2002)
Min Temperature 62 °F 53 °F 50 °F (1997)
Cooling Degree Days 10    
Growing Degree Days 24 (Base 50)    
Moisture  
Dew Point 65 °F    
Average Humidity 70    
Maximum Humidity 100    
Minimum Humidity 36    
Precipitation  
Precipitation 0.00 in 0.09 in - ()
Sea Level Pressure  
Sea Level Pressure 29.95 in    
Wind  
Wind Speed 5 mph ()    
Max Wind Speed 12 mph    
Max Gust Speed -    
Visibility 6.5 miles    
Events      
Averages and records for this station are not official NWS values.
T = Trace of Precipitation, MM = Missing Value Source: Averaged Metar Reports

Daily Weather History Graph

Daily Weather History Graph

Search for Another Location

Airport or City:

Trip Planner

Search our weather history database for the weather conditions in past years. The results will help you decide how hot, cold, wet, or windy it might be!

Date:

Astronomy

Jun. 18, 2013 Rise Set
Actual Time 5:22 AM CEST 9:53 PM CEST
Civil Twilight 4:36 AM CEST 10:40 PM CEST
Nautical Twilight 3:25 AM CEST 11:50 PM CEST
Astronomical Twilight 2:10 AM CEST 1:05 AM CEST
Moon 3:52 PM CEST 1:54 AM CEST
Length of Visible Light 18h 04m
Length of Day
16h 31m
Waxing Gibbous, 68% of the Moon is Illuminated
Jun 18
Waxing Gibbous
Jun 23
Full
Jun 30
Last Quarter
Jul 8
New
Jul 16
First Quarter

Hourly Weather History & Observations

Time (CEST) Temp. Heat Index Dew Point Humidity Pressure Visibility Wind Dir Wind Speed Gust Speed Precip Events Conditions
12:25 AM 66.2 °F - 62.6 °F 88% 29.95 in 6.2 mi South 4.6 mph - N/A   Scattered Clouds
12:55 AM 66.2 °F - 62.6 °F 88% 29.98 in 6.2 mi WSW 9.2 mph - N/A   Scattered Clouds
1:25 AM 66.2 °F - 62.6 °F 88% 29.98 in 6.2 mi West 5.8 mph - N/A   Unknown
1:55 AM 64.4 °F - 62.6 °F 94% 29.98 in 6.2 mi Variable 2.3 mph - N/A   Unknown
2:00 AM 64 °F - 63 °F 94% 29.99 in 7 mi West 4.5 mph - -   Partly Cloudy
2:25 AM 64.4 °F - 62.6 °F 94% 29.98 in 6.2 mi Variable 1.2 mph - N/A   Unknown
2:55 AM 64.4 °F - 62.6 °F 94% 29.95 in 5.6 mi East 3.5 mph - N/A   Unknown
3:25 AM 64.4 °F - 62.6 °F 94% 29.95 in 5.6 mi South 4.6 mph - N/A   Unknown
3:55 AM 62.6 °F - 60.8 °F 94% 29.95 in 5.0 mi SSE 4.6 mph - N/A   Unknown
4:25 AM 62.6 °F - 62.6 °F 100% 29.95 in 5.6 mi SSW 2.3 mph - N/A   Unknown
4:55 AM 62.6 °F - 62.6 °F 100% 29.95 in - SSW 5.8 mph - N/A   Mist
5:00 AM 63 °F - 62 °F 96% 29.96 in 3 mi South 6.7 mph - -   Mist
5:25 AM 62.6 °F - 62.6 °F 100% 29.95 in 2.8 mi South 4.6 mph - N/A   Mist
5:55 AM 64.4 °F - 62.6 °F 94% 29.95 in - South 5.8 mph - N/A   Mist
6:25 AM 64.4 °F - 62.6 °F 94% 29.95 in 3.1 mi South 3.5 mph - N/A   Mist
6:55 AM 64.4 °F - 62.6 °F 94% 29.95 in 3.7 mi SW 4.6 mph - N/A   Unknown
7:25 AM 66.2 °F - 64.4 °F 94% 29.95 in 3.1 mi SW 3.5 mph - N/A   Mist
7:55 AM 69.8 °F - 64.4 °F 83% 29.98 in 3.7 mi Variable 1.2 mph - N/A   Unknown
8:00 AM 70 °F - 64 °F 77% 29.97 in 4 mi NNE 2.2 mph - -   Mist
8:25 AM 73.4 °F - 66.2 °F 78% 29.98 in 3.7 mi Variable 1.2 mph - N/A   Unknown
8:55 AM 73.4 °F - 66.2 °F 78% 29.98 in 5.0 mi Variable 2.3 mph - N/A   Unknown
9:25 AM 75.2 °F - 66.2 °F 73% 29.98 in 6.2 mi Variable 2.3 mph - N/A   Unknown
9:55 AM 77.0 °F - 64.4 °F 65% 29.98 in 6.2 mi Variable 1.2 mph - N/A   Unknown
10:25 AM 78.8 °F - 64.4 °F 61% 29.98 in 6.2 mi Variable 2.3 mph - N/A   Unknown
10:55 AM 80.6 °F 81.5 °F 60.8 °F 51% 29.98 in 6.2 mi NE 3.5 mph - N/A   Unknown
11:00 AM 80 °F - 60 °F 41% 29.98 in 17 mi East 2.2 mph - -  
11:25 AM 80.6 °F 81.8 °F 62.6 °F 54% 29.98 in 6.2 mi NNE 3.5 mph - N/A   Unknown
11:55 AM 82.4 °F 83.4 °F 62.6 °F 51% 29.98 in 6.2 mi Variable 2.3 mph - N/A   Unknown
12:25 PM 82.4 °F 83.4 °F 62.6 °F 51% 29.98 in 6.2 mi ENE 4.6 mph - N/A   Unknown
12:55 PM 82.4 °F 84.6 °F 66.2 °F 58% 29.98 in 6.2 mi ENE 8.1 mph - N/A   Unknown
1:25 PM 84.2 °F 85.0 °F 62.6 °F 48% 29.95 in 6.2 mi ENE 6.9 mph - N/A   Unknown
1:55 PM 84.2 °F 85.0 °F 62.6 °F 48% 29.95 in 6.2 mi NE 9.2 mph - N/A   Unknown
2:00 PM 85 °F - 62 °F 36% 29.96 in 15 mi NE 8.9 mph - -   Partly Cloudy
2:25 PM 84.2 °F 85.0 °F 62.6 °F 48% 29.95 in 6.2 mi ENE 10.4 mph - N/A   Unknown
2:55 PM 84.2 °F 85.6 °F 64.4 °F 51% 29.95 in 6.2 mi NE 11.5 mph - N/A   Unknown
3:25 PM 86.0 °F 86.6 °F 62.6 °F 45% 29.95 in 6.2 mi ENE 11.5 mph - N/A   Unknown
3:55 PM 86.0 °F 87.3 °F 64.4 °F 48% 29.95 in 6.2 mi ENE 8.1 mph - N/A   Unknown
4:25 PM 87.8 °F 90.4 °F 66.2 °F 49% 29.95 in 6.2 mi NE 8.1 mph - N/A   Unknown
4:55 PM 86.0 °F 88.2 °F 66.2 °F 51% 29.95 in 6.2 mi ENE 6.9 mph - N/A   Unknown
5:00 PM 85 °F - 65 °F 42% 29.95 in 14 mi NE 6.7 mph - -   Scattered Clouds
5:25 PM 84.2 °F 86.6 °F 66.2 °F 55% 29.95 in 6.2 mi NE 6.9 mph - N/A   Unknown
5:55 PM 86.0 °F 88.2 °F 66.2 °F 51% 29.92 in 6.2 mi NE 6.9 mph - N/A   Unknown
6:25 PM 84.2 °F 86.6 °F 66.2 °F 55% 29.92 in 6.2 mi ENE 8.1 mph - N/A   Unknown
6:55 PM 82.4 °F 86.3 °F 69.8 °F 66% 29.92 in 6.2 mi NE 6.9 mph - N/A   Unknown
7:25 PM 82.4 °F 85.4 °F 68.0 °F 62% 29.92 in 6.2 mi NE 5.8 mph - N/A   Unknown
7:55 PM 82.4 °F 85.4 °F 68.0 °F 62% 29.92 in 6.2 mi NE 5.8 mph - N/A   Unknown
8:00 PM 82 °F - 69 °F 55% 29.92 in 13 mi NE 6.7 mph - -   Partly Cloudy
8:25 PM 82.4 °F 85.4 °F 68.0 °F 62% 29.92 in 6.2 mi ENE 6.9 mph - N/A   Unknown
8:55 PM 80.6 °F 83.2 °F 68.0 °F 65% 29.92 in 6.2 mi ENE 4.6 mph - N/A   Unknown
9:25 PM 78.8 °F - 68.0 °F 69% 29.92 in 6.2 mi ENE 5.8 mph - N/A   Unknown
9:55 PM 78.8 °F - 68.0 °F 69% 29.92 in 6.2 mi ENE 5.8 mph - N/A   Unknown
10:25 PM 77.0 °F - 68.0 °F 74% 29.92 in 6.2 mi NE 4.6 mph - N/A   Unknown
10:55 PM 75.2 °F - 68.0 °F 78% 29.95 in 6.2 mi NE 3.5 mph - N/A   Unknown
11:00 PM 73 °F - 67 °F 75% 29.94 in 12 mi NE 4.5 mph - -  
11:25 PM 73.4 °F - 68.0 °F 83% 29.95 in 6.2 mi ENE 3.5 mph - N/A   Unknown
11:55 PM 73.4 °F - 66.2 °F 78% 29.95 in 6.2 mi Variable 1.2 mph - N/A   Unknown